Time,TemperatureF,DewpointF,PressureIn,WindDirection,WindDirectionDegrees,WindSpeedMPH,WindSpeedGustMPH,Humidity,HourlyPrecipIn,Conditions,Clouds,dailyrainin,SoftwareType,DateUTC
2013-10-30 00:03:00,71.5,66.0,29.83,South,170,1.0,8.0,83,0.00,,,0.00,weatherlink.com 1.10,2013-10-30 06:03:00,
2013-10-30 00:18:00,71.1,66.0,29.83,SSE,166,0.0,9.0,84,0.00,,,0.00,weatherlink.com 1.10,2013-10-30 06:18:00,
2013-10-30 00:33:00,70.8,66.0,29.82,SSE,164,5.0,7.0,85,0.00,,,0.00,weatherlink.com 1.10,2013-10-30 06:33:00,
2013-10-30 00:48:00,70.8,66.0,29.83,SSE,157,3.0,8.0,85,0.00,,,0.00,weatherlink.com 1.10,2013-10-30 06:48:00,
2013-10-30 01:03:00,71.0,66.0,29.83,SSE,164,6.0,8.0,84,0.00,,,0.00,weatherlink.com 1.10,2013-10-30 07:03:00,
2013-10-30 01:18:00,71.0,66.0,29.83,SSE,162,5.0,8.0,84,0.00,,,0.00,weatherlink.com 1.10,2013-10-30 07:18:00,
2013-10-30 01:33:00,70.6,66.0,29.82,SSE,161,2.0,8.0,84,0.00,,,0.00,weatherlink.com 1.10,2013-10-30 07:33:00,
2013-10-30 01:48:00,70.5,66.0,29.82,SSE,163,1.0,9.0,85,0.00,,,0.00,weatherlink.com 1.10,2013-10-30 07:48:00,
2013-10-30 02:03:00,70.6,66.0,29.82,SSE,157,1.0,8.0,84,0.00,,,0.00,weatherlink.com 1.10,2013-10-30 08:03:00,
2013-10-30 02:18:00,71.0,66.0,29.81,SSE,161,4.0,10.0,84,0.00,,,0.00,weatherlink.com 1.10,2013-10-30 08:18:00,
2013-10-30 02:33:00,71.3,66.0,29.81,SSE,159,3.0,10.0,83,0.00,,,0.00,weatherlink.com 1.10,2013-10-30 08:33:00,
2013-10-30 02:48:00,71.4,66.0,29.81,SSE,163,3.0,9.0,83,0.00,,,0.00,weatherlink.com 1.10,2013-10-30 08:48:00,
2013-10-30 03:03:00,71.4,66.0,29.81,SSE,161,4.0,10.0,83,0.00,,,0.00,weatherlink.com 1.10,2013-10-30 09:03:00,
2013-10-30 03:18:00,71.4,66.0,29.80,SSE,162,4.0,11.0,83,0.00,,,0.00,weatherlink.com 1.10,2013-10-30 09:18:00,
2013-10-30 03:33:00,71.3,66.0,29.80,SSE,163,3.0,9.0,83,0.00,,,0.00,weatherlink.com 1.10,2013-10-30 09:33:00,
2013-10-30 03:48:00,71.3,66.0,29.81,SSE,152,7.0,9.0,83,0.00,,,0.00,weatherlink.com 1.10,2013-10-30 09:48:00,
2013-10-30 04:03:00,71.2,66.0,29.80,South,169,4.0,8.0,83,0.00,,,0.00,weatherlink.com 1.10,2013-10-30 10:03:00,
2013-10-30 04:18:00,71.4,66.0,29.80,SSE,165,3.0,9.0,83,0.00,,,0.00,weatherlink.com 1.10,2013-10-30 10:18:00,
2013-10-30 04:33:00,71.5,66.0,29.80,SSE,163,5.0,9.0,83,0.00,,,0.00,weatherlink.com 1.10,2013-10-30 10:33:00,
2013-10-30 04:48:00,71.5,66.0,29.80,SSE,168,5.0,11.0,83,0.00,,,0.00,weatherlink.com 1.10,2013-10-30 10:48:00,
2013-10-30 05:03:00,71.5,67.0,29.79,SSE,166,6.0,12.0,84,0.00,,,0.00,weatherlink.com 1.10,2013-10-30 11:03:00,
2013-10-30 05:18:00,71.3,66.0,29.79,SSE,168,6.0,13.0,84,0.00,,,0.00,weatherlink.com 1.10,2013-10-30 11:18:00,
2013-10-30 05:33:00,71.2,66.0,29.79,SSE,152,6.0,12.0,84,0.00,,,0.00,weatherlink.com 1.10,2013-10-30 11:33:00,
2013-10-30 05:48:00,71.1,66.0,29.79,SSE,156,4.0,15.0,85,0.00,,,0.00,weatherlink.com 1.10,2013-10-30 11:48:00,
2013-10-30 06:03:00,71.0,66.0,29.79,SSE,158,7.0,13.0,85,0.00,,,0.00,weatherlink.com 1.10,2013-10-30 12:03:00,
2013-10-30 06:18:00,71.0,66.0,29.79,South,177,6.0,11.0,85,0.00,,,0.00,weatherlink.com 1.10,2013-10-30 12:18:00,
2013-10-30 06:33:00,70.9,66.0,29.79,SSE,160,0.0,11.0,85,0.00,,,0.00,weatherlink.com 1.10,2013-10-30 12:33:00,
2013-10-30 06:48:00,70.9,66.0,29.79,SSE,166,2.0,12.0,85,0.00,,,0.00,weatherlink.com 1.10,2013-10-30 12:48:00,
2013-10-30 07:03:00,70.8,66.0,29.79,SSE,161,2.0,9.0,85,0.00,,,0.00,weatherlink.com 1.10,2013-10-30 13:03:00,
2013-10-30 07:18:00,71.0,66.0,29.80,South,174,4.0,11.0,85,0.00,,,0.00,weatherlink.com 1.10,2013-10-30 13:18:00,
2013-10-30 07:33:00,71.3,66.0,29.79,SSE,168,5.0,12.0,84,0.00,,,0.00,weatherlink.com 1.10,2013-10-30 13:33:00,
2013-10-30 07:48:00,71.3,66.0,29.79,SSE,165,2.0,9.0,84,0.00,,,0.00,weatherlink.com 1.10,2013-10-30 13:48:00,
2013-10-30 08:03:00,71.4,66.0,29.79,South,174,10.0,10.0,84,0.00,,,0.00,weatherlink.com 1.10,2013-10-30 14:03:00,
2013-10-30 08:18:00,71.7,66.0,29.79,SSE,156,2.0,10.0,83,0.00,,,0.00,weatherlink.com 1.10,2013-10-30 14:18:00,
2013-10-30 08:33:00,72.2,67.0,29.79,South,185,11.0,14.0,83,0.00,,,0.00,weatherlink.com 1.10,2013-10-30 14:33:00,
2013-10-30 08:48:00,72.6,67.0,29.79,South,181,3.0,10.0,82,0.00,,,0.00,weatherlink.com 1.10,2013-10-30 14:48:00,
2013-10-30 09:03:00,73.0,67.0,29.79,South,177,5.0,15.0,81,0.00,,,0.00,weatherlink.com 1.10,2013-10-30 15:03:00,
2013-10-30 09:19:00,73.7,67.0,29.78,South,174,8.0,12.0,80,0.00,,,0.00,weatherlink.com 1.10,2013-10-30 15:19:00,
2013-10-30 09:34:00,74.0,67.0,29.78,South,176,6.0,15.0,79,0.00,,,0.00,weatherlink.com 1.10,2013-10-30 15:34:00,
2013-10-30 09:49:00,74.3,67.0,29.79,South,188,11.0,15.0,79,0.00,,,0.00,weatherlink.com 1.10,2013-10-30 15:49:00,
2013-10-30 10:04:00,74.8,68.0,29.79,SSW,196,4.0,13.0,78,0.00,,,0.00,weatherlink.com 1.10,2013-10-30 16:04:00,
2013-10-30 10:19:00,75.5,68.0,29.78,SSW,212,11.0,15.0,77,0.00,,,0.00,weatherlink.com 1.10,2013-10-30 16:19:00,
2013-10-30 10:34:00,75.8,68.0,29.77,SSW,193,9.0,15.0,76,0.00,,,0.00,weatherlink.com 1.10,2013-10-30 16:34:00,
2013-10-30 10:49:00,76.1,68.0,29.78,SW,218,6.0,17.0,75,0.00,,,0.00,weatherlink.com 1.10,2013-10-30 16:49:00,
2013-10-30 11:04:00,76.3,67.0,29.78,SSW,195,3.0,13.0,74,0.00,,,0.00,weatherlink.com 1.10,2013-10-30 17:04:00,
2013-10-30 11:34:00,76.4,68.0,29.76,South,178,4.0,12.0,74,0.00,,,0.00,weatherlink.com 1.10,2013-10-30 17:34:00,
2013-10-30 11:49:00,76.8,68.0,29.77,South,184,4.0,12.0,73,0.00,,,0.00,weatherlink.com 1.10,2013-10-30 17:49:00,
2013-10-30 12:04:00,77.1,67.0,29.75,SSW,198,0.0,8.0,72,0.00,,,0.00,weatherlink.com 1.10,2013-10-30 18:04:00,
2013-10-30 12:19:00,77.7,68.0,29.75,SSW,197,7.0,13.0,71,0.00,,,0.00,weatherlink.com 1.10,2013-10-30 18:19:00,
2013-10-30 12:34:00,78.3,67.0,29.75,SW,222,8.0,9.0,68,0.00,,,0.00,weatherlink.com 1.10,2013-10-30 18:34:00,
2013-10-30 12:49:00,79.0,63.0,29.75,SW,222,7.0,15.0,58,0.00,,,0.00,weatherlink.com 1.10,2013-10-30 18:49:00,
2013-10-30 13:04:00,79.6,62.0,29.73,SSW,210,7.0,14.0,56,0.00,,,0.00,weatherlink.com 1.10,2013-10-30 19:04:00,
2013-10-30 13:19:00,80.6,61.0,29.73,SW,231,8.0,17.0,52,0.00,,,0.00,weatherlink.com 1.10,2013-10-30 19:19:00,
2013-10-30 13:34:00,80.2,60.0,29.72,SW,233,7.0,18.0,50,0.00,,,0.00,weatherlink.com 1.10,2013-10-30 19:34:00,
2013-10-30 13:49:00,80.7,60.0,29.70,SSW,210,1.0,14.0,49,0.00,,,0.00,weatherlink.com 1.10,2013-10-30 19:49:00,
2013-10-30 14:04:00,80.6,57.0,29.70,SW,217,4.0,12.0,44,0.00,,,0.00,weatherlink.com 1.10,2013-10-30 20:04:00,
2013-10-30 14:19:00,80.6,57.0,29.70,SSW,210,2.0,13.0,44,0.00,,,0.00,weatherlink.com 1.10,2013-10-30 20:19:00,
2013-10-30 14:34:00,80.8,54.0,29.70,SW,216,1.0,10.0,40,0.00,,,0.00,weatherlink.com 1.10,2013-10-30 20:34:00,
2013-10-30 14:49:00,80.7,53.0,29.70,SW,216,6.0,15.0,38,0.00,,,0.00,weatherlink.com 1.10,2013-10-30 20:49:00,
2013-10-30 15:04:00,80.9,51.0,29.70,SW,220,9.0,14.0,36,0.00,,,0.00,weatherlink.com 1.10,2013-10-30 21:04:00,
2013-10-30 15:34:00,80.8,51.0,29.69,SSW,207,5.0,21.0,36,0.00,,,0.00,weatherlink.com 1.10,2013-10-30 21:34:00,
2013-10-30 15:49:00,80.6,53.0,29.70,SW,218,12.0,12.0,39,0.00,,,0.00,weatherlink.com 1.10,2013-10-30 21:49:00,
2013-10-30 16:04:00,80.5,53.0,29.69,South,187,1.0,14.0,39,0.00,,,0.00,weatherlink.com 1.10,2013-10-30 22:04:00,
2013-10-30 16:19:00,80.0,54.0,29.67,South,169,4.0,12.0,40,0.00,,,0.00,weatherlink.com 1.10,2013-10-30 22:19:00,
2013-10-30 16:34:00,79.3,56.0,29.68,South,174,5.0,16.0,45,0.00,,,0.00,weatherlink.com 1.10,2013-10-30 22:34:00,
2013-10-30 16:49:00,78.2,64.0,29.67,South,181,4.0,12.0,61,0.00,,,0.00,weatherlink.com 1.10,2013-10-30 22:49:00,
2013-10-30 17:04:00,76.9,66.0,29.67,South,172,5.0,12.0,69,0.00,,,0.00,weatherlink.com 1.10,2013-10-30 23:04:00,
2013-10-30 17:19:00,76.6,66.0,29.66,South,182,6.0,11.0,70,0.00,,,0.00,weatherlink.com 1.10,2013-10-30 23:19:00,
2013-10-30 17:34:00,76.2,66.0,29.66,SSW,195,0.0,10.0,71,0.00,,,0.00,weatherlink.com 1.10,2013-10-30 23:34:00,
2013-10-30 17:49:00,75.8,66.0,29.66,South,191,5.0,11.0,72,0.00,,,0.00,weatherlink.com 1.10,2013-10-30 23:49:00,
2013-10-30 18:04:00,75.2,66.0,29.66,South,186,2.0,8.0,74,0.00,,,0.00,weatherlink.com 1.10,2013-10-31 00:04:00,
2013-10-30 18:19:00,74.7,66.0,29.66,South,181,0.0,6.0,75,0.00,,,0.00,weatherlink.com 1.10,2013-10-31 00:19:00,
2013-10-30 18:34:00,74.3,66.0,29.66,South,184,0.0,6.0,76,0.00,,,0.00,weatherlink.com 1.10,2013-10-31 00:34:00,
2013-10-30 18:49:00,74.2,66.0,29.66,South,183,3.0,5.0,76,0.00,,,0.00,weatherlink.com 1.10,2013-10-31 00:49:00,
2013-10-30 19:04:00,74.2,66.0,29.67,South,189,4.0,9.0,76,0.00,,,0.00,weatherlink.com 1.10,2013-10-31 01:04:00,
2013-10-30 19:19:00,74.2,66.0,29.66,South,177,4.0,9.0,76,0.00,,,0.00,weatherlink.com 1.10,2013-10-31 01:19:00,
2013-10-30 19:35:00,74.2,66.0,29.66,South,176,6.0,10.0,76,0.00,,,0.00,weatherlink.com 1.10,2013-10-31 01:35:00,
2013-10-30 19:50:00,74.0,66.0,29.66,South,189,5.0,9.0,76,0.00,,,0.00,weatherlink.com 1.10,2013-10-31 01:50:00,
2013-10-30 20:05:00,73.8,66.0,29.66,South,179,4.0,10.0,77,0.00,,,0.00,weatherlink.com 1.10,2013-10-31 02:05:00,
2013-10-30 20:20:00,73.5,66.0,29.66,South,186,5.0,8.0,77,0.00,,,0.00,weatherlink.com 1.10,2013-10-31 02:20:00,
2013-10-30 20:35:00,73.3,66.0,29.65,South,181,4.0,8.0,77,0.00,,,0.00,weatherlink.com 1.10,2013-10-31 02:35:00,
2013-10-30 20:50:00,73.4,65.0,29.65,South,185,7.0,18.0,76,0.00,,,0.00,weatherlink.com 1.10,2013-10-31 02:50:00,
2013-10-30 21:05:00,72.8,66.0,29.65,South,184,9.0,14.0,78,0.00,,,0.00,weatherlink.com 1.10,2013-10-31 03:05:00,
2013-10-30 21:20:00,72.5,66.0,29.65,South,187,6.0,14.0,79,0.00,,,0.00,weatherlink.com 1.10,2013-10-31 03:20:00,
2013-10-30 21:35:00,72.2,66.0,29.67,SW,220,3.0,12.0,80,0.00,,,0.00,weatherlink.com 1.10,2013-10-31 03:35:00,
2013-10-30 21:50:00,71.3,66.0,29.68,SW,228,6.0,13.0,83,0.00,,,0.00,weatherlink.com 1.10,2013-10-31 03:50:00,
2013-10-30 22:05:00,68.7,64.0,29.67,SW,220,16.0,17.0,86,0.00,,,0.00,weatherlink.com 1.10,2013-10-31 04:05:00,
2013-10-30 22:20:00,68.5,65.0,29.68,WSW,253,14.0,18.0,87,0.00,,,0.00,weatherlink.com 1.10,2013-10-31 04:20:00,
2013-10-30 22:35:00,66.7,61.0,29.71,SSW,213,12.0,30.0,82,0.00,,,0.00,weatherlink.com 1.10,2013-10-31 04:35:00,
2013-10-30 22:50:00,64.8,61.0,29.68,SW,216,0.0,12.0,86,0.00,,,0.00,weatherlink.com 1.10,2013-10-31 04:50:00,
2013-10-30 23:05:00,64.4,61.0,29.66,SW,217,0.0,6.0,88,0.00,,,0.00,weatherlink.com 1.10,2013-10-31 05:05:00,
2013-10-30 23:19:00,64.0,61.0,29.67,SW,216,2.0,7.0,89,0.01,,,0.01,weatherlink.com 1.10,2013-10-31 05:19:00,
2013-10-30 23:34:00,63.5,61.0,29.68,SSW,212,4.0,7.0,90,0.01,,,0.01,weatherlink.com 1.10,2013-10-31 05:34:00,
2013-10-30 23:50:00,63.2,60.0,29.61,SSE,161,0.0,7.0,88,0.01,,,0.01,weatherlink.com 1.10,2013-10-31 05:50:00,